When you browse on this site, cookies collect data to enhance your experience and personalize the content and advertising you see.
Visit our Privacy Policy to learn more. By continuing to use the site, you agree to this use of cookies and data.
  • In Lithuania
  • List of Countries
  • For 7 days
  • Water Temperature
  • Satellite Maps
  • Weather Map
  • Weather Widgets
  • user-avatar
    Login

    Hourly Weather Guanare

    Today, 20 January, Sunday

    Time Temperature Precipitation Wind Pressure Humidity
    00:00 +27°C° 0 mm 2 mps 742 mmHg 55%
    01:00 +26°C° 0 mm 1 mps 742 mmHg 56%
    02:00 +26°C° 0 mm 1 mps 742 mmHg 57%
    03:00 +26°C° 0 mm 1 mps 742 mmHg 58%
    04:00 +26°C° 0 mm 1 mps 742 mmHg 59%
    05:00 +26°C° 0 mm 1 mps 743 mmHg 59%
    06:00 +26°C° 0 mm 1 mps 743 mmHg 60%
    07:00 +26°C° 0 mm 1 mps 744 mmHg 60%
    08:00 +28°C° 0 mm 1 mps 744 mmHg 55%
    09:00 +30°C° 0 mm 1 mps 744 mmHg 50%
    10:00 +32°C° 0 mm 1 mps 745 mmHg 45%
    11:00 +33°C° 0 mm 1 mps 744 mmHg 43%
    12:00 +34°C° 0 mm 1 mps 743 mmHg 40%
    13:00 +35°C° 0 mm 1 mps 742 mmHg 38%
    14:00 +35°C° 0 mm 1 mps 741 mmHg 37%
    15:00 +35°C° 0 mm 1 mps 741 mmHg 36%
    16:00 +35°C° 0 mm 1 mps 740 mmHg 35%
    17:00 +33°C° 0 mm 1 mps 740 mmHg 40%
    18:00 +31°C° 0 mm 1 mps 741 mmHg 45%
    19:00 +29°C° 0 mm 1 mps 741 mmHg 50%
    20:00 +28°C° 0 mm 2 mps 741 mmHg 50%
    21:00 +28°C° 0 mm 2 mps 742 mmHg 51%
    22:00 +27°C° 0 mm 2 mps 742 mmHg 51%
    23:00 +27°C° 0 mm 2 mps 742 mmHg 52%

    Tomorrow, 21 January, Monday

    Time Temperature Precipitation Wind Pressure Humidity
    00:00 +27°C° 0 mm 2 mps 742 mmHg 52%
    01:00 +27°C° 0 mm 2 mps 742 mmHg 52%
    02:00 +27°C° 0 mm 1 mps 742 mmHg 53%
    03:00 +27°C° 0 mm 1 mps 742 mmHg 54%
    04:00 +27°C° 0 mm 1 mps 742 mmHg 55%
    05:00 +27°C° 0 mm 1 mps 743 mmHg 56%
    06:00 +27°C° 0 mm 1 mps 743 mmHg 56%
    07:00 +27°C° 0 mm 1 mps 744 mmHg 57%
    08:00 +29°C° 0 mm 1 mps 745 mmHg 54%
    09:00 +31°C° 0 mm 2 mps 745 mmHg 50%
    10:00 +32°C° 0 mm 2 mps 746 mmHg 47%
    11:00 +34°C° 0 mm 2 mps 745 mmHg 44%
    12:00 +35°C° 0 mm 2 mps 744 mmHg 41%
    13:00 +36°C° 0 mm 2 mps 743 mmHg 39%
    14:00 +36°C° 0 mm 2 mps 742 mmHg 38%
    15:00 +36°C° 0 mm 2 mps 741 mmHg 37%
    16:00 +36°C° 0 mm 2 mps 741 mmHg 36%
    17:00 +34°C° 0 mm 2 mps 741 mmHg 41%
    18:00 +31°C° 0 mm 1 mps 741 mmHg 46%
    19:00 +29°C° 0 mm 1 mps 742 mmHg 51%
    20:00 +29°C° 0 mm 1 mps 742 mmHg 53%
    21:00 +28°C° 0 mm 1 mps 743 mmHg 54%
    22:00 +27°C° 0 mm 1 mps 744 mmHg 56%
    23:00 +27°C° 0 mm 1 mps 743 mmHg 57%

    Day after tomorrow, 22 January, Tuesday

    Time Temperature Precipitation Wind Pressure Humidity
    00:00 +26°C° 0 mm 1 mps 743 mmHg 57%
    01:00 +26°C° 0 mm 1 mps 743 mmHg 58%
    02:00 +26°C° 0 mm 1 mps 743 mmHg 59%
    03:00 +25°C° 0 mm 1 mps 742 mmHg 60%
    04:00 +25°C° 0 mm 1 mps 742 mmHg 61%
    05:00 +25°C° 0 mm 1 mps 743 mmHg 61%
    06:00 +26°C° 0 mm 1 mps 744 mmHg 61%
    07:00 +26°C° 0 mm 1 mps 744 mmHg 61%
    08:00 +28°C° 0 mm 1 mps 745 mmHg 56%
    09:00 +30°C° 0 mm 2 mps 745 mmHg 51%
    10:00 +32°C° 0 mm 2 mps 745 mmHg 46%
    11:00 +34°C° 0 mm 2 mps 744 mmHg 43%
    12:00 +35°C° 0 mm 2 mps 743 mmHg 39%
    13:00 +36°C° 0 mm 2 mps 742 mmHg 36%
    14:00 +36°C° 0 mm 2 mps 742 mmHg 35%
    15:00 +36°C° 0 mm 2 mps 741 mmHg 34%
    16:00 +36°C° 0 mm 2 mps 740 mmHg 34%
    17:00 +34°C° 0 mm 2 mps 741 mmHg 39%
    18:00 +31°C° 0 mm 2 mps 742 mmHg 44%
    19:00 +29°C° 0 mm 2 mps 742 mmHg 50%
    20:00 +28°C° 0 mm 2 mps 743 mmHg 50%
    21:00 +27°C° 0 mm 2 mps 743 mmHg 51%
    22:00 +27°C° 0 mm 2 mps 744 mmHg 51%
    23:00 +26°C° 0 mm 1 mps 744 mmHg 52%

    23 January, Wednesday

    Time Temperature Precipitation Wind Pressure Humidity
    00:00 +26°C° 0 mm 1 mps 743 mmHg 53%
    01:00 +26°C° 0 mm 1 mps 743 mmHg 54%
    02:00 +25°C° 0 mm 1 mps 743 mmHg 56%
    03:00 +25°C° 0 mm 1 mps 743 mmHg 58%
    04:00 +24°C° 0 mm 1 mps 743 mmHg 60%
    05:00 +25°C° 0 mm 1 mps 744 mmHg 59%
    06:00 +25°C° 0 mm 1 mps 744 mmHg 59%
    07:00 +26°C° 0 mm 1 mps 745 mmHg 58%
    08:00 +28°C° 0 mm 1 mps 745 mmHg 54%
    09:00 +30°C° 0 mm 2 mps 745 mmHg 51%
    10:00 +32°C° 0 mm 2 mps 745 mmHg 47%
    11:00 +32°C° 0 mm 2 mps 744 mmHg 45%
    12:00 +34°C° 0 mm 2 mps 743 mmHg 43%
    13:00 +33°C° 0 mm 1 mps 742 mmHg 41%
    14:00 +34°C° 0 mm 1 mps 742 mmHg 39%
    15:00 +34°C° 0 mm 1 mps 741 mmHg 38%
    16:00 +34°C° 0 mm 1 mps 740 mmHg 37%
    17:00 +32°C° 0 mm 1 mps 741 mmHg 41%
    18:00 +30°C° 0 mm 2 mps 741 mmHg 45%
    19:00 +28°C° 0 mm 2 mps 741 mmHg 49%
    20:00 +28°C° 0 mm 2 mps 742 mmHg 48%
    21:00 +27°C° 0 mm 2 mps 742 mmHg 48%
    22:00 +27°C° 0 mm 2 mps 743 mmHg 47%
    23:00 +26°C° 0 mm 2 mps 743 mmHg 48%

    24 January, Thursday

    Time Temperature Precipitation Wind Pressure Humidity
    00:00 +26°C° 0 mm 1 mps 743 mmHg 49%
    01:00 +26°C° 0 mm 1 mps 742 mmHg 50%
    02:00 +26°C° 0 mm 1 mps 742 mmHg 53%
    03:00 +26°C° 0 mm 1 mps 742 mmHg 57%
    04:00 +25°C° 0 mm 1 mps 742 mmHg 60%
    05:00 +26°C° 0 mm 1 mps 743 mmHg 60%
    06:00 +26°C° 0 mm 1 mps 743 mmHg 60%
    07:00 +26°C° 0 mm 1 mps 744 mmHg 61%
    08:00 +28°C° 0 mm 1 mps 744 mmHg 57%
    09:00 +29°C° 0 mm 2 mps 744 mmHg 53%
    10:00 +31°C° 0 mm 2 mps 745 mmHg 49%
    11:00 +32°C° 0 mm 2 mps 744 mmHg 46%
    12:00 +34°C° 0 mm 2 mps 743 mmHg 43%
    13:00 +35°C° 0 mm 2 mps 742 mmHg 40%
    14:00 +35°C° 0 mm 2 mps 741 mmHg 39%
    15:00 +35°C° 0 mm 2 mps 740 mmHg 37%
    16:00 +35°C° 0 mm 2 mps 740 mmHg 36%
    17:00 +32°C° 0 mm 1 mps 740 mmHg 42%
    18:00 +30°C° 0 mm 1 mps 741 mmHg 47%
    19:00 +28°C° 0 mm 1 mps 741 mmHg 52%
    20:00 +28°C° 0 mm 1 mps 741 mmHg 54%
    21:00 +27°C° 0 mm 2 mps 742 mmHg 55%
    22:00 +27°C° 0 mm 2 mps 742 mmHg 57%
    23:00 +26°C° 0 mm 2 mps 742 mmHg 56%

    25 January, Friday

    Time Temperature Precipitation Wind Pressure Humidity
    00:00 +26°C° 0 mm 2 mps 742 mmHg 56%
    01:00 +26°C° 0 mm 2 mps 742 mmHg 55%
    02:00 +26°C° 0 mm 1 mps 742 mmHg 57%
    03:00 +25°C° 0 mm 1 mps 742 mmHg 58%
    04:00 +25°C° 0 mm 1 mps 742 mmHg 60%
    05:00 +25°C° 0 mm 1 mps 743 mmHg 61%
    06:00 +26°C° 0 mm 1 mps 743 mmHg 61%
    07:00 +26°C° 0 mm 1 mps 744 mmHg 62%
    08:00 +28°C° 0 mm 1 mps 744 mmHg 58%
    09:00 +30°C° 0 mm 2 mps 745 mmHg 54%
    10:00 +31°C° 0 mm 2 mps 745 mmHg 49%
    11:00 +34°C° 0 mm 2 mps 744 mmHg 44%
    12:00 +36°C° 0 mm 2 mps 743 mmHg 39%
    13:00 +37°C° 0 mm 2 mps 742 mmHg 35%
    14:00 +37°C° 0 mm 2 mps 741 mmHg 34%
    15:00 +37°C° 0 mm 2 mps 740 mmHg 34%
    16:00 +37°C° 0 mm 2 mps 740 mmHg 34%
    17:00 +35°C° 0 mm 2 mps 740 mmHg 39%
    18:00 +32°C° 0 mm 1 mps 740 mmHg 44%
    19:00 +30°C° 0 mm 1 mps 741 mmHg 48%
    20:00 +29°C° 0 mm 1 mps 741 mmHg 51%
    21:00 +28°C° 0 mm 1 mps 742 mmHg 53%
    22:00 +27°C° 0 mm 1 mps 742 mmHg 55%
    23:00 +27°C° 0 mm 1 mps 742 mmHg 57%
    Show more